Datum,Zeit,Temp. I.,Temp.,Temp. Sonne,Windchill X,Diff Temp.,Feuchte I.,Feuchte,Luftdruck,Regen,Wind,Richtung,Windb�en,W0
,,�C,�C,�C,�C,�C,%,%,hPa,mm,km/h,�,km/h,B0
#Calibrate=1.000 #Regen0=0mm #Location=365/365m #Baro_correction=43hPa #Station=Nexus
,,1,2,7,8,10,17,18,133,34,35,36,45,97
01.08.2019,00:09,26.0,17.5,16.5,14.4,0.0,52,72,1010.9,0.000,0.0,135,0.0,1
01.08.2019,00:19,26.0,17.2,16.1,13.8,0.0,52,73,1010.9,0.000,0.0,135,0.0,1
01.08.2019,00:29,26.0,16.8,15.6,13.3,0.0,52,73,1010.9,0.000,0.0,112,0.0,1
01.08.2019,00:39,26.1,16.5,15.4,13.1,0.0,52,74,1010.9,0.000,0.0,135,0.0,1
01.08.2019,00:49,26.1,16.3,15.1,12.7,0.0,52,74,1010.9,0.000,0.0,112,0.0,1
01.08.2019,00:59,26.1,16.0,14.8,12.5,0.0,51,75,1010.9,0.000,0.0,112,0.0,1
01.08.2019,01:09,26.1,15.7,14.5,12.2,0.0,51,75,1010.9,0.000,0.0,135,0.0,1
01.08.2019,01:19,26.0,15.5,14.3,12.0,0.0,51,75,1010.9,0.000,0.0,135,0.0,1
01.08.2019,01:29,26.0,15.3,14.2,11.9,0.0,51,76,1010.9,0.000,0.0,135,0.0,1
01.08.2019,01:39,26.0,15.0,13.9,11.6,0.0,51,76,1010.9,0.000,0.0,135,0.0,1
01.08.2019,01:49,25.9,14.8,13.7,11.4,0.0,51,76,1010.6,0.000,0.0,135,0.0,1
01.08.2019,01:59,25.9,14.6,13.5,11.3,0.0,51,77,1010.6,0.000,0.0,112,0.0,1
01.08.2019,02:09,25.9,14.4,13.3,11.1,0.0,51,77,1010.8,0.000,0.0,135,0.0,1
01.08.2019,02:19,25.8,14.3,13.2,11.0,0.0,51,78,1010.8,0.000,0.0,135,0.0,1
01.08.2019,02:29,25.8,14.1,13.0,10.8,0.0,51,78,1010.7,0.000,0.0,135,0.0,1
01.08.2019,02:39,25.8,13.9,12.8,10.7,0.0,50,78,1010.7,0.000,0.0,157,0.0,1
01.08.2019,02:49,25.8,13.7,12.7,10.6,0.0,50,78,1011.5,0.000,0.0,135,0.0,1
01.08.2019,02:59,25.7,13.6,12.6,10.5,0.0,50,79,1011.5,0.000,0.0,135,0.0,1
01.08.2019,03:09,25.7,13.5,12.5,10.4,0.0,50,79,1011.6,0.000,0.0,135,0.0,1
01.08.2019,03:19,25.7,13.4,12.4,10.4,0.0,50,79,1011.6,0.000,0.0,135,0.0,1
01.08.2019,03:29,25.6,13.3,12.3,10.3,0.0,50,80,1010.9,0.000,0.0,135,0.0,1
01.08.2019,03:39,25.6,13.2,12.2,10.2,0.0,50,80,1010.9,0.000,0.0,157,0.0,1
01.08.2019,03:49,25.6,13.1,12.1,10.1,0.0,50,80,1010.8,0.000,0.0,157,0.0,1
01.08.2019,03:59,25.6,13.0,12.0,10.1,0.0,50,81,1010.8,0.000,0.0,135,0.0,1
01.08.2019,04:09,25.6,12.9,12.0,10.1,0.0,50,81,1010.8,0.000,0.0,157,0.0,1
01.08.2019,04:19,25.5,12.7,11.8,10.1,0.0,50,81,1010.8,0.000,0.0,112,0.0,1
01.08.2019,04:29,25.5,12.7,11.8,10.0,0.0,50,81,1010.8,0.000,0.0,112,0.0,1
01.08.2019,04:39,25.5,12.6,11.7,9.9,0.0,50,81,1010.8,0.000,0.0,337,0.0,1
01.08.2019,04:49,25.4,12.5,11.6,9.9,0.0,50,82,1010.6,0.000,0.0,135,0.0,1
01.08.2019,04:59,25.4,12.3,11.5,9.9,0.0,49,82,1010.6,0.000,0.0,337,0.0,1
01.08.2019,05:09,25.4,12.3,11.5,9.9,0.0,49,82,1010.6,0.000,0.0,180,0.0,1
01.08.2019,05:19,25.4,12.1,11.3,9.7,0.0,49,83,1010.6,0.000,0.0,157,0.0,1
01.08.2019,05:29,25.2,12.1,11.3,9.6,0.0,49,83,1010.6,0.000,0.0,180,0.0,1
01.08.2019,05:39,25.2,12.0,11.2,9.5,0.0,49,83,1010.6,0.000,0.0,135,0.0,1
01.08.2019,05:49,25.3,11.9,11.1,9.5,0.0,49,82,1010.8,0.000,0.0,157,0.0,1
01.08.2019,05:59,25.2,11.9,11.1,9.4,0.0,49,83,1010.8,0.000,0.0,157,0.0,1
01.08.2019,06:09,25.2,11.9,11.1,9.4,0.0,49,83,1010.6,0.000,0.0,135,0.0,1
01.08.2019,06:19,25.2,12.0,11.2,9.5,0.0,49,83,1010.6,0.000,0.0,157,0.0,1
01.08.2019,06:29,25.2,12.1,11.3,9.7,0.0,49,83,1010.7,0.000,0.0,112,0.0,1
01.08.2019,06:39,25.1,12.5,11.6,9.9,0.0,49,83,1010.7,0.000,0.0,157,0.0,1
01.08.2019,06:49,25.1,14.2,12.8,10.1,0.0,49,80,1010.7,0.000,0.0,315,0.0,1
01.08.2019,06:59,25.1,15.8,14.1,10.7,0.0,49,76,1010.7,0.000,0.0,22,0.0,1
01.08.2019,07:09,25.0,17.2,15.8,13.0,0.0,49,72,1010.9,0.000,0.0,315,0.0,1
01.08.2019,07:19,25.0,16.9,16.1,14.5,0.0,49,69,1010.9,0.000,0.0,112,0.0,1
01.08.2019,07:29,25.0,16.4,16.3,16.1,0.0,49,71,1010.8,0.000,0.0,157,0.0,1
01.08.2019,07:39,25.0,16.0,17.9,17.9,0.0,49,72,1010.8,0.000,0.0,90,0.0,1
01.08.2019,07:49,25.0,16.1,19.5,19.5,0.0,49,74,1010.9,0.000,0.0,292,0.0,1
01.08.2019,07:59,24.9,16.3,20.4,20.4,0.0,49,74,1010.9,0.000,0.6,315,0.0,1
01.08.2019,08:09,24.9,16.5,21.0,21.0,0.0,49,75,1011.4,0.000,0.6,360,2.4,1
01.08.2019,08:19,24.9,16.8,21.5,21.5,0.0,49,75,1011.4,0.000,1.6,315,1.6,1
01.08.2019,08:29,24.9,17.1,22.6,22.6,0.0,49,75,1011.4,0.000,1.1,315,2.4,1
01.08.2019,08:39,24.8,17.4,23.3,23.3,0.0,49,72,1011.4,0.000,1.8,270,2.3,1
01.08.2019,08:49,24.8,17.7,23.8,23.8,0.0,49,70,1010.8,0.000,1.6,337,0.0,1
01.08.2019,08:59,24.8,18.1,24.9,24.9,0.0,49,68,1010.8,0.000,1.3,315,3.9,1
01.08.2019,09:09,24.8,18.3,25.5,25.5,0.0,49,66,1010.4,0.000,1.4,180,3.1,1
01.08.2019,09:19,24.7,18.4,24.3,24.3,0.0,49,64,1010.4,0.000,1.6,360,0.0,1
01.08.2019,09:29,24.6,18.6,24.9,24.9,0.0,48,64,1010.9,0.000,1.1,225,2.6,1
01.08.2019,09:39,24.6,19.0,24.9,24.9,0.0,48,62,1010.9,0.000,1.9,292,0.0,1
01.08.2019,09:49,24.4,19.3,26.3,26.3,0.0,47,60,1010.9,0.000,1.8,270,4.0,1
01.08.2019,09:59,24.2,19.8,26.6,26.6,0.0,48,60,1010.9,0.000,1.9,292,1.6,1
01.08.2019,10:09,24.3,20.1,27.3,27.3,0.0,47,58,1010.6,0.000,1.9,337,3.7,1
01.08.2019,10:19,24.2,20.2,26.7,26.7,0.0,47,55,1010.6,0.000,2.9,157,2.7,1
01.08.2019,10:29,24.1,20.3,26.9,26.9,0.0,47,55,1010.4,0.000,2.7,292,4.7,1
01.08.2019,10:39,24.0,20.7,27.2,27.2,0.0,47,55,1010.4,0.000,2.4,270,4.5,1
01.08.2019,10:49,24.0,21.0,27.8,27.8,0.0,47,54,1010.1,0.000,1.8,315,1.8,1
01.08.2019,10:59,24.0,21.1,27.6,27.6,0.0,47,53,1010.1,0.000,2.4,315,5.8,1
01.08.2019,11:09,24.0,21.5,28.2,28.2,0.0,47,53,1010.1,0.000,1.8,360,1.6,1
01.08.2019,11:19,24.1,22.0,28.5,28.5,0.0,48,52,1010.1,0.000,1.8,180,4.5,1
01.08.2019,11:29,24.1,22.3,29.1,29.1,0.0,47,51,1010.1,0.000,2.3,315,4.8,1
01.08.2019,11:39,24.2,22.9,29.2,29.2,0.0,47,48,1010.1,0.000,2.1,292,3.7,1
01.08.2019,11:49,24.2,23.3,30.0,30.0,0.0,47,46,1010.1,0.000,1.0,247,2.3,1
01.08.2019,11:59,24.2,23.8,30.4,30.4,0.0,47,45,1010.1,0.000,2.3,315,4.3,1
01.08.2019,12:09,24.3,23.9,30.0,30.0,0.0,47,43,1010.2,0.000,2.1,90,0.0,1
01.08.2019,12:19,24.3,24.1,29.7,29.7,0.0,47,42,1010.2,0.000,1.8,112,2.1,1
01.08.2019,12:29,24.3,24.5,30.4,30.4,0.0,47,41,1010.1,0.000,1.9,315,3.2,1
01.08.2019,12:39,24.2,24.7,29.7,29.7,0.0,47,41,1010.1,0.000,3.1,112,1.8,1
01.08.2019,12:49,24.2,24.5,29.8,29.8,0.0,47,41,1009.8,0.000,2.4,270,0.0,2
01.08.2019,12:59,24.2,24.6,28.6,28.6,0.0,47,39,1009.8,0.000,2.7,247,4.7,2
01.08.2019,13:09,24.4,24.0,27.5,27.5,0.0,47,40,1009.8,0.000,3.1,225,1.8,2
01.08.2019,13:19,24.4,24.3,28.6,28.6,0.0,47,41,1009.8,0.000,1.6,135,3.4,2
01.08.2019,13:29,24.4,24.6,29.4,29.4,0.0,47,41,1010.0,0.000,3.4,337,4.7,2
01.08.2019,13:39,24.4,24.6,28.9,28.9,0.0,47,40,1010.0,0.000,3.5,315,3.4,2
01.08.2019,13:49,24.4,25.3,30.1,30.1,0.0,47,39,1010.1,0.000,2.7,247,5.0,2
01.08.2019,13:59,24.4,25.7,30.9,30.9,0.0,47,41,1010.1,0.000,3.1,135,6.6,2
01.08.2019,14:09,24.4,25.7,30.8,30.8,0.0,47,38,1009.4,0.000,3.4,135,4.3,2
01.08.2019,14:19,24.4,25.7,30.8,30.8,0.0,46,39,1009.4,0.000,2.7,315,2.9,2
01.08.2019,14:29,24.4,25.7,28.9,28.9,0.0,46,40,1009.5,0.000,3.1,270,4.0,2
01.08.2019,14:39,24.4,26.0,29.7,29.7,0.0,46,38,1009.5,0.000,2.3,180,2.3,2
01.08.2019,14:49,24.4,25.9,31.2,31.2,0.0,46,38,1009.1,0.000,2.6,180,3.7,2
01.08.2019,14:59,24.4,25.9,30.7,30.7,0.0,46,39,1009.1,0.000,4.5,315,4.7,2
01.08.2019,15:09,24.4,25.8,30.1,30.1,0.0,46,38,1008.9,0.000,3.4,337,6.0,2
01.08.2019,15:19,24.4,25.9,30.8,30.8,0.0,46,38,1008.9,0.000,2.6,270,2.7,2
01.08.2019,15:29,24.5,25.9,31.0,31.0,0.0,46,38,1009.1,0.000,3.1,270,3.9,2
01.08.2019,15:39,24.5,26.1,31.2,31.2,0.0,46,38,1009.1,0.000,2.9,270,7.6,2
01.08.2019,15:49,24.5,26.3,31.6,31.6,0.0,46,38,1008.8,0.000,2.4,247,3.1,2
01.08.2019,15:59,24.5,26.3,30.8,30.8,0.0,46,37,1008.8,0.000,3.9,292,3.4,2
01.08.2019,16:09,24.5,26.1,30.4,30.4,0.0,46,37,1009.2,0.000,2.6,22,2.9,2
01.08.2019,16:19,24.5,26.1,31.3,31.3,0.0,46,36,1009.2,0.000,2.7,337,5.1,2
01.08.2019,16:29,24.5,25.8,30.8,30.8,0.0,46,36,1009.1,0.000,3.5,22,5.1,2
01.08.2019,16:39,24.5,25.4,28.0,28.0,0.0,45,37,1009.1,0.000,2.4,180,0.0,2
01.08.2019,16:49,24.5,25.6,29.6,29.6,0.0,45,36,1008.4,0.000,2.1,337,1.9,2
01.08.2019,16:59,24.6,25.5,30.5,30.5,0.0,45,36,1008.4,0.000,2.7,202,1.8,2
01.08.2019,17:09,24.5,25.5,30.5,30.5,0.0,45,37,1008.4,0.000,1.8,180,0.0,2
01.08.2019,17:19,24.6,25.5,31.2,31.2,0.0,45,37,1008.4,0.000,0.8,247,0.0,2
01.08.2019,17:29,24.6,25.5,31.3,31.3,0.0,45,37,1008.2,0.000,1.9,135,0.0,2
01.08.2019,17:39,24.6,25.4,30.4,30.4,0.0,45,34,1008.2,0.000,3.9,45,6.4,2
01.08.2019,17:49,24.6,25.2,29.8,29.8,0.0,45,35,1008.1,0.000,3.7,270,4.8,2
01.08.2019,17:59,24.6,25.0,29.3,29.3,0.0,45,35,1008.1,0.000,2.9,180,4.2,2
01.08.2019,18:09,24.6,24.8,29.1,29.1,0.0,45,36,1007.9,0.000,2.4,225,2.6,2
01.08.2019,18:19,24.6,24.8,27.1,27.1,0.0,45,36,1007.9,0.000,1.9,202,0.0,2
01.08.2019,18:29,24.6,25.2,27.7,27.7,0.0,44,35,1007.8,0.000,2.3,247,1.6,2
01.08.2019,18:39,24.6,25.1,27.3,27.3,0.0,45,34,1007.8,0.000,2.3,315,2.4,2
01.08.2019,18:49,24.6,25.5,28.2,28.2,0.0,44,33,1008.7,0.000,1.9,315,2.6,2
01.08.2019,18:59,24.7,25.4,27.7,27.7,0.0,44,35,1008.7,0.000,2.9,292,1.8,2
01.08.2019,19:09,24.7,25.4,27.1,27.1,0.0,44,36,1009.1,0.000,1.6,45,2.7,2
01.08.2019,19:19,24.7,25.0,26.3,26.3,0.0,44,35,1009.1,0.000,1.9,337,2.1,2
01.08.2019,19:29,24.8,24.4,25.8,25.8,0.0,44,36,1008.0,0.000,1.9,270,2.3,2
01.08.2019,19:39,24.8,23.9,24.7,24.7,0.0,44,37,1008.0,0.000,0.8,22,0.0,2
01.08.2019,19:49,24.8,23.5,23.6,23.6,0.0,45,38,1007.4,0.000,0.5,247,0.0,2
01.08.2019,19:59,24.8,23.1,22.9,22.6,0.0,45,40,1007.4,0.000,0.3,292,0.0,2
01.08.2019,20:09,24.8,22.6,22.3,21.8,0.0,45,42,1007.2,0.000,0.5,112,0.0,2
01.08.2019,20:19,24.8,22.1,21.6,20.6,0.0,45,47,1007.2,0.000,0.0,135,0.0,2
01.08.2019,20:21,24.8,22.1,21.6,20.6,0.0,45,47,1007.2,0.000,0.0,135,0.0,2
01.08.2019,20:29,24.8,21.5,20.9,19.7,0.0,46,51,1007.2,0.000,0.0,135,0.0,2
01.08.2019,20:39,24.9,20.9,20.2,18.7,0.0,46,54,1007.2,0.000,0.0,135,0.0,2
01.08.2019,20:49,25.0,20.3,19.3,17.3,0.0,46,56,1007.6,0.000,0.0,112,0.0,2
01.08.2019,20:59,25.0,19.8,18.7,16.4,0.0,46,56,1007.6,0.000,0.0,135,0.0,2
01.08.2019,21:09,25.1,19.4,18.2,15.7,0.0,47,58,1007.5,0.000,0.0,135,0.0,2
01.08.2019,21:19,25.2,19.0,17.8,15.3,0.0,47,60,1007.5,0.000,0.0,157,0.0,2
01.08.2019,21:29,25.2,18.6,17.3,14.8,0.0,47,61,1008.4,0.000,0.0,135,0.0,2
01.08.2019,21:39,25.2,18.2,16.9,14.4,0.0,47,63,1008.4,0.000,0.0,180,0.0,2
01.08.2019,21:49,25.2,17.9,16.7,14.2,0.0,47,64,1008.4,0.000,0.0,112,0.0,2
01.08.2019,21:59,25.4,17.5,16.3,13.8,0.0,47,65,1008.4,0.000,0.0,135,0.0,2
01.08.2019,22:09,25.4,17.3,16.1,13.7,0.0,47,65,1008.1,0.000,0.0,135,0.0,2
01.08.2019,22:19,25.4,17.0,15.9,13.6,0.0,46,66,1008.1,0.000,0.0,90,0.0,2
01.08.2019,22:29,25.2,16.7,15.6,13.3,0.0,46,67,1008.4,0.000,0.0,135,0.0,2
01.08.2019,22:39,25.2,16.6,15.5,13.2,0.0,46,68,1008.4,0.000,0.0,135,0.0,2
01.08.2019,22:49,25.2,16.4,15.3,13.1,0.0,46,68,1008.1,0.000,0.0,135,0.0,2
01.08.2019,22:59,25.2,16.2,15.1,12.9,0.0,46,69,1008.1,0.000,0.0,157,0.0,2
01.08.2019,23:09,25.4,16.1,15.0,12.8,0.0,47,69,1008.5,0.000,0.0,135,0.0,2
01.08.2019,23:19,25.5,15.9,14.8,12.6,0.0,47,70,1008.5,0.000,0.0,112,0.0,2
01.08.2019,23:29,25.5,15.7,14.6,12.5,0.0,47,70,1008.5,0.000,0.0,135,0.0,2
01.08.2019,23:39,25.5,15.5,14.5,12.5,0.0,47,71,1008.5,0.000,0.0,135,0.0,2
01.08.2019,23:49,25.6,15.5,14.6,12.8,0.0,47,72,1008.4,0.000,0.0,135,0.0,2
01.08.2019,23:59,25.6,15.5,14.6,12.9,0.0,47,72,1008.4,0.000,0.0,135,0.0,2
02.08.2019,00:09,25.7,15.6,14.8,13.1,0.0,47,72,1009.1,0.000,0.0,135,0.0,2
02.08.2019,00:19,25.7,15.7,15.0,13.6,0.0,47,72,1009.1,0.000,0.0,157,0.0,2
02.08.2019,00:29,25.7,15.8,15.1,13.7,0.0,47,73,1009.2,0.000,0.0,135,0.0,2
02.08.2019,00:39,25.8,15.9,15.3,14.0,0.0,47,73,1009.2,0.000,0.0,135,0.0,2
02.08.2019,00:49,25.7,16.0,15.4,14.3,0.0,47,73,1009.0,0.000,0.0,112,0.0,2
02.08.2019,00:59,25.6,16.1,15.5,14.4,0.0,47,73,1009.0,0.000,0.0,135,0.0,2
02.08.2019,01:09,25.5,16.1,15.6,14.6,0.0,47,73,1008.6,0.000,0.0,135,0.0,2
02.08.2019,01:19,25.4,16.1,15.7,14.9,0.0,47,73,1008.6,0.000,0.0,202,0.0,2
02.08.2019,01:29,25.4,16.1,15.7,15.0,0.0,47,73,1008.4,0.000,0.0,135,0.0,2
02.08.2019,01:39,25.2,16.1,15.7,14.8,0.0,47,72,1008.4,0.000,0.0,315,0.0,2
02.08.2019,01:49,25.2,16.0,15.5,14.6,0.0,47,73,1008.2,0.000,0.0,135,0.0,2
02.08.2019,01:59,25.2,16.0,15.5,14.5,0.0,47,74,1008.2,0.000,0.0,315,0.0,2
02.08.2019,02:09,25.2,16.1,15.7,14.8,0.0,47,74,1008.1,0.000,0.0,90,0.0,2
02.08.2019,02:19,25.1,16.2,15.7,14.8,0.0,48,74,1008.1,0.000,0.0,22,0.0,2
02.08.2019,02:29,25.1,16.3,15.9,15.1,0.0,48,75,1007.8,0.000,0.0,135,0.0,2
02.08.2019,02:39,25.0,16.2,15.8,14.9,0.0,48,74,1007.8,0.000,0.0,135,0.0,2
02.08.2019,02:49,25.0,16.2,15.8,15.0,0.0,48,74,1008.2,0.000,0.0,247,0.0,2
02.08.2019,02:59,25.0,16.2,15.8,14.9,0.0,47,75,1008.2,0.000,0.0,157,0.0,2
02.08.2019,03:09,25.0,16.1,15.7,14.8,0.0,48,75,1008.2,0.000,0.0,112,0.0,2
02.08.2019,03:19,24.9,16.2,15.7,14.8,0.0,48,75,1008.2,0.000,0.0,135,0.0,2
02.08.2019,03:29,24.9,16.2,15.7,14.8,0.0,48,74,1007.4,0.000,0.0,112,0.0,2
02.08.2019,03:39,24.9,16.2,15.7,14.8,0.0,48,75,1007.4,0.000,0.0,135,0.0,2
02.08.2019,03:49,24.9,16.2,15.7,14.7,0.0,48,75,1007.3,0.000,0.0,135,0.0,2
02.08.2019,03:59,24.8,16.1,15.6,14.5,0.0,48,75,1007.3,0.000,0.0,135,0.0,2
02.08.2019,04:09,24.8,16.1,15.5,14.3,0.0,48,76,1007.1,0.000,0.0,157,0.0,2
02.08.2019,04:19,24.8,15.9,15.3,14.1,0.0,48,75,1007.1,0.000,0.0,112,0.0,2
02.08.2019,04:29,24.8,15.9,15.3,14.1,0.0,48,75,1007.1,0.000,0.0,135,0.0,2
02.08.2019,04:39,24.8,15.9,15.4,14.3,0.0,48,75,1007.1,0.000,0.0,112,0.0,2
02.08.2019,04:49,24.7,15.9,15.4,14.4,0.0,48,75,1007.2,0.000,0.0,135,0.0,2
02.08.2019,04:59,24.7,16.0,15.5,14.4,0.0,48,76,1007.2,0.000,0.0,135,0.0,2
02.08.2019,05:09,24.7,15.9,15.4,14.4,0.0,48,76,1006.9,0.000,0.0,135,0.0,2
02.08.2019,05:19,24.7,15.8,15.2,14.1,0.0,49,76,1006.9,0.000,0.0,180,0.0,2
02.08.2019,05:29,24.6,15.6,15.1,14.1,0.0,48,77,1006.8,0.000,0.0,247,0.0,2
02.08.2019,05:39,24.6,15.6,15.0,13.9,0.0,48,77,1006.8,0.000,0.0,157,0.0,2
02.08.2019,05:49,24.6,15.6,15.0,13.9,0.0,48,77,1006.9,0.000,0.0,135,0.0,2
02.08.2019,05:59,24.6,15.4,14.8,13.6,0.0,48,76,1006.9,0.000,0.0,135,0.0,2
02.08.2019,06:09,24.6,15.3,14.6,13.2,0.0,48,78,1006.4,0.000,0.0,135,0.0,2
02.08.2019,06:19,24.5,15.3,14.6,13.2,0.0,48,77,1006.4,0.000,0.0,135,0.0,2
02.08.2019,06:29,24.5,15.5,14.8,13.3,0.0,49,78,1006.5,0.000,0.0,135,0.0,2
02.08.2019,06:39,24.5,15.9,15.2,13.8,0.0,48,76,1006.5,0.000,0.0,112,0.0,2
02.08.2019,06:49,24.5,16.6,15.8,14.2,0.0,49,76,1006.4,0.000,0.0,135,0.0,2
02.08.2019,06:59,24.4,17.3,16.6,15.1,0.0,49,73,1006.4,0.000,0.0,67,0.0,2
02.08.2019,07:09,24.5,17.1,16.6,15.7,0.0,49,73,1006.4,0.000,0.0,112,0.0,2
02.08.2019,07:19,24.4,17.0,16.6,15.7,0.0,49,74,1006.4,0.000,0.0,337,0.0,2
02.08.2019,07:29,24.4,17.2,16.7,15.8,0.0,49,74,1006.5,0.000,0.0,337,0.0,2
02.08.2019,07:39,24.4,17.5,17.2,16.6,0.0,49,74,1006.5,0.000,0.0,270,0.0,2
02.08.2019,07:49,24.4,17.9,19.0,19.0,0.0,49,72,1006.2,0.000,0.0,22,0.0,2
02.08.2019,07:59,24.4,18.6,22.9,22.9,0.0,49,70,1006.2,0.000,0.0,270,0.0,2
02.08.2019,08:09,24.4,19.1,23.2,23.2,0.0,49,67,1007.0,0.000,0.0,22,0.0,2
02.08.2019,08:19,24.4,19.6,21.7,21.7,0.0,49,65,1007.0,0.000,0.0,22,0.0,2
02.08.2019,08:29,24.4,19.7,20.7,20.7,0.0,49,64,1008.1,0.000,0.0,135,0.0,2
02.08.2019,08:39,24.4,19.9,20.3,20.3,0.0,49,63,1008.1,0.000,0.0,180,0.0,2
02.08.2019,08:49,24.4,20.1,20.5,20.5,0.0,49,63,1007.2,0.000,0.0,157,0.0,2
02.08.2019,08:59,24.4,20.3,20.6,20.6,0.0,49,62,1007.2,0.000,0.0,315,0.0,2
02.08.2019,09:09,24.4,20.8,21.4,21.4,0.0,49,62,1007.2,0.000,0.0,270,0.0,2
02.08.2019,09:19,24.5,21.0,21.8,21.8,0.0,50,62,1007.2,0.000,0.2,90,0.0,2
02.08.2019,09:29,24.6,21.0,21.9,21.9,0.0,50,60,1007.1,0.000,0.2,180,0.0,2
02.08.2019,09:39,24.6,21.6,22.6,22.6,0.0,50,59,1007.1,0.000,0.0,22,0.0,2
02.08.2019,09:49,24.7,22.1,23.2,23.2,0.0,50,58,1007.3,0.000,1.6,315,2.6,2
02.08.2019,09:59,24.7,21.7,22.9,22.9,0.0,50,56,1007.3,0.000,1.6,157,0.0,2
02.08.2019,10:09,24.8,21.3,22.3,22.3,0.0,50,56,1007.4,0.000,1.1,315,3.5,2
02.08.2019,10:19,24.8,21.2,21.8,21.8,0.0,50,58,1007.4,0.000,0.6,337,0.0,2
02.08.2019,10:29,24.8,21.3,21.8,21.8,0.0,50,59,1006.9,0.000,0.3,225,2.4,2
02.08.2019,10:39,24.8,21.4,21.5,21.5,0.0,50,58,1006.9,0.000,0.5,45,0.0,2
02.08.2019,10:49,24.8,21.5,21.7,21.7,0.0,50,58,1007.2,0.000,0.2,247,0.0,2
02.08.2019,10:59,24.8,22.0,22.5,22.5,0.0,50,58,1007.2,0.000,0.3,315,2.4,2
02.08.2019,11:09,24.8,22.7,24.3,24.3,0.0,50,55,1008.5,0.000,1.1,315,3.4,2
02.08.2019,11:19,24.9,23.5,28.6,28.6,0.0,50,52,1008.5,0.000,0.5,67,0.0,2
02.08.2019,11:29,25.0,23.9,27.5,27.5,0.0,50,50,1007.4,0.000,0.6,67,0.0,2
02.08.2019,11:39,25.0,24.3,26.8,26.8,0.0,50,52,1007.4,0.000,0.2,157,0.0,2
02.08.2019,11:49,25.1,24.7,27.0,27.0,0.0,50,52,1007.8,0.000,0.0,90,0.0,2
02.08.2019,11:59,25.2,25.1,27.2,27.2,0.0,51,50,1007.8,0.000,0.3,157,1.8,2
02.08.2019,12:09,25.2,25.4,27.2,27.2,0.0,51,49,1007.6,0.000,0.6,135,0.0,2
02.08.2019,12:19,25.2,25.7,27.7,27.7,0.0,51,49,1007.6,0.000,0.5,45,0.0,2
02.08.2019,12:29,25.3,26.3,28.3,28.3,0.0,51,45,1007.8,0.000,1.4,270,6.1,2
02.08.2019,12:39,25.2,26.2,27.7,27.7,0.0,50,44,1007.8,0.000,2.3,270,2.7,2
02.08.2019,12:49,25.2,26.3,27.8,27.8,0.0,50,43,1007.6,0.000,2.1,270,2.6,2
02.08.2019,12:59,25.4,26.2,28.2,28.2,0.0,50,42,1007.6,0.000,2.3,112,1.8,2
02.08.2019,13:09,25.4,27.0,31.1,31.1,0.0,51,42,1007.2,0.000,1.1,180,2.3,2
02.08.2019,13:19,25.4,26.7,31.0,31.0,0.0,50,39,1007.2,0.000,1.4,315,1.9,2
02.08.2019,13:29,25.4,26.2,30.4,30.4,0.0,49,38,1007.3,0.000,1.9,270,3.7,2
02.08.2019,13:39,25.3,26.1,31.0,31.0,0.0,46,38,1007.3,0.000,2.3,247,0.0,2
02.08.2019,13:49,25.3,26.3,31.7,31.7,0.0,46,36,1007.6,0.000,1.9,135,3.4,2
02.08.2019,13:59,25.2,26.9,31.9,31.9,0.0,47,37,1007.6,0.000,2.4,67,3.9,2
02.08.2019,14:09,25.4,27.1,31.6,31.6,0.0,48,37,1007.0,0.000,2.6,225,3.7,2
02.08.2019,14:19,25.4,26.8,29.6,29.6,0.0,48,36,1007.0,0.000,3.2,315,7.7,2
02.08.2019,14:29,25.4,26.7,30.3,30.3,0.0,48,36,1007.1,0.000,2.4,225,3.7,2
02.08.2019,14:39,25.5,26.5,29.9,29.9,0.0,48,37,1007.1,0.000,4.3,247,0.0,2
02.08.2019,14:49,25.6,26.7,30.9,30.9,0.0,49,37,1007.1,0.000,1.9,45,0.0,2
02.08.2019,14:59,25.6,26.5,28.9,28.9,0.0,48,37,1007.1,0.000,1.9,270,2.1,2
02.08.2019,15:09,25.5,26.3,27.3,27.3,0.0,48,38,1007.2,0.000,1.8,270,2.3,2
02.08.2019,15:19,25.5,26.1,27.2,27.2,0.0,47,38,1007.2,0.000,3.5,22,4.5,2
02.08.2019,15:29,25.5,26.7,29.6,29.6,0.0,47,37,1007.1,0.000,2.3,22,3.2,2
02.08.2019,15:39,25.5,27.1,31.6,31.6,0.0,47,36,1007.1,0.000,2.1,270,3.5,2
02.08.2019,15:49,25.6,27.3,32.5,32.5,0.0,47,36,1006.9,0.000,1.3,135,1.6,2
02.08.2019,15:59,25.6,26.9,32.8,32.8,0.0,47,34,1006.9,0.000,1.8,270,2.7,2
02.08.2019,16:09,25.6,26.7,31.2,31.2,0.0,47,35,1007.0,0.000,1.9,337,3.9,2
02.08.2019,16:19,25.6,26.3,28.3,28.3,0.0,47,36,1007.0,0.000,3.5,247,4.8,2
02.08.2019,16:29,25.6,26.7,27.6,27.6,0.0,47,37,1006.8,0.000,1.9,22,0.0,2
02.08.2019,16:39,25.7,26.6,27.8,27.8,0.0,48,37,1006.8,0.000,2.1,225,5.3,2
02.08.2019,16:49,25.7,26.4,26.9,26.9,0.0,48,38,1006.8,0.000,0.8,315,2.6,2
02.08.2019,16:59,25.7,26.9,29.1,29.1,0.0,48,37,1006.8,0.000,0.6,247,0.0,2
02.08.2019,17:09,25.7,27.1,32.2,32.2,0.0,48,36,1006.6,0.000,0.8,157,0.0,2
02.08.2019,17:19,25.7,27.0,31.0,31.0,0.0,48,36,1006.6,0.000,3.1,67,3.7,2
02.08.2019,17:29,25.7,26.7,28.3,28.3,0.0,48,37,1006.4,0.000,1.1,90,0.0,2
02.08.2019,17:39,25.7,26.7,27.5,27.5,0.0,48,37,1006.4,0.000,0.8,270,0.0,2
02.08.2019,17:49,25.7,26.3,26.8,26.8,0.0,48,37,1006.6,0.000,2.4,247,4.5,2
02.08.2019,17:59,25.7,26.2,26.9,26.9,0.0,48,38,1006.6,0.000,1.6,112,1.8,2
02.08.2019,18:09,25.7,25.9,26.1,26.1,0.0,48,38,1005.9,0.000,3.2,292,4.7,2
02.08.2019,18:19,25.7,25.5,25.4,25.1,0.0,48,38,1005.9,0.000,4.0,247,3.9,2
02.08.2019,18:29,25.7,25.3,25.2,25.0,0.0,48,39,1005.9,0.000,3.2,135,2.9,2
02.08.2019,18:39,25.8,25.3,25.2,24.9,0.0,48,40,1005.9,0.000,3.1,315,7.9,2
02.08.2019,18:49,25.8,24.9,24.8,24.6,0.0,48,41,1006.0,0.000,4.5,337,4.3,2
02.08.2019,18:59,25.8,24.9,24.8,24.5,0.0,48,42,1006.0,0.000,2.7,22,2.3,2
02.08.2019,19:09,25.8,24.7,24.6,24.3,0.0,48,43,1005.2,0.000,1.8,202,2.1,3
02.08.2019,19:19,25.8,24.5,24.4,24.1,0.0,48,42,1005.2,0.000,1.9,315,2.1,3
02.08.2019,19:29,25.8,24.3,24.2,24.1,0.0,48,42,1006.2,0.000,0.8,247,0.0,3
02.08.2019,19:39,25.9,24.1,24.4,24.4,0.0,48,42,1006.2,0.000,1.9,247,2.9,3
02.08.2019,19:49,25.9,24.1,25.6,25.6,0.0,48,42,1006.3,0.000,1.3,292,3.9,3
02.08.2019,19:59,25.9,24.0,25.6,25.6,0.0,48,43,1006.3,0.000,0.8,22,0.0,3
02.08.2019,20:09,25.9,23.7,24.1,24.1,0.0,48,43,1006.4,0.000,0.2,22,0.0,3
02.08.2019,20:19,25.9,23.2,22.9,22.2,0.0,48,47,1006.4,0.000,0.2,157,1.9,3
02.08.2019,20:29,25.9,22.6,21.8,20.3,0.0,48,53,1006.4,0.000,0.3,135,0.0,3
02.08.2019,20:39,25.9,21.9,21.0,19.1,0.0,48,55,1006.4,0.000,0.0,202,0.0,3
02.08.2019,20:49,25.9,21.5,20.4,18.3,0.0,48,56,1006.6,0.000,0.0,135,0.0,3
02.08.2019,20:59,25.9,21.1,20.0,17.7,0.0,48,57,1006.6,0.000,0.0,112,0.0,3
02.08.2019,21:09,25.9,20.8,19.7,17.5,0.0,48,57,1006.6,0.000,0.0,112,0.0,3
02.08.2019,21:19,26.0,20.7,19.8,17.9,0.0,48,59,1006.6,0.000,0.0,315,0.0,3
02.08.2019,21:29,26.0,20.5,20.0,18.9,0.0,48,59,1007.0,0.000,0.6,112,0.0,3
02.08.2019,21:39,26.0,20.6,20.2,19.4,0.0,49,57,1007.0,0.000,1.0,22,2.9,3
02.08.2019,21:49,26.0,20.5,20.2,19.6,0.0,49,58,1007.4,0.000,1.0,225,0.0,3
02.08.2019,21:59,26.0,20.5,20.0,19.0,0.0,48,62,1007.4,0.000,1.0,135,2.7,3
02.08.2019,22:09,25.9,20.1,19.3,17.6,0.0,48,63,1007.0,0.000,1.6,22,0.0,3
02.08.2019,22:19,25.9,19.9,19.2,17.7,0.0,49,64,1007.0,0.000,1.1,337,0.0,3
02.08.2019,22:29,25.9,19.5,18.8,17.5,0.0,49,65,1006.6,0.000,0.2,247,0.0,3
02.08.2019,22:39,25.9,19.2,18.6,17.3,0.0,49,68,1006.6,0.000,0.2,22,3.1,3
02.08.2019,22:49,25.9,18.9,18.3,17.1,0.0,49,67,1006.7,0.000,0.2,45,1.8,3
02.08.2019,22:59,25.9,18.8,18.2,17.0,0.0,49,67,1006.7,0.000,0.5,135,0.0,3
02.08.2019,23:09,25.9,18.7,18.0,16.7,0.0,49,68,1006.7,0.000,0.2,135,0.0,3
02.08.2019,23:19,25.9,18.6,17.9,16.5,0.0,49,68,1006.7,0.000,0.0,315,0.0,3
02.08.2019,23:29,26.0,18.6,18.0,16.8,0.0,49,68,1006.5,0.000,0.6,202,0.0,3
02.08.2019,23:39,26.0,18.5,17.8,16.5,0.0,49,69,1006.5,0.000,0.0,202,0.0,3
02.08.2019,23:49,26.0,18.4,17.8,16.6,0.0,49,69,1006.8,0.000,0.0,315,0.0,3
02.08.2019,23:59,26.0,18.5,18.0,17.0,0.0,49,69,1006.8,0.000,0.8,270,2.3,3
03.08.2019,00:09,26.0,18.4,17.9,17.0,0.0,49,70,1007.4,0.687,1.4,157,0.0,3
03.08.2019,00:19,26.0,18.2,17.5,16.0,0.0,49,73,1007.4,0.000,1.9,135,1.6,3
03.08.2019,00:29,26.0,18.1,17.4,15.9,0.0,49,74,1007.9,0.000,0.2,135,0.0,2
03.08.2019,00:39,26.0,18.0,17.2,15.6,0.0,49,77,1007.9,0.000,0.0,135,0.0,2
03.08.2019,00:49,26.0,17.8,17.0,15.4,0.0,49,77,1007.3,1.373,0.8,180,1.6,2
03.08.2019,00:59,26.0,17.7,16.9,15.3,0.0,49,77,1007.3,0.000,1.3,135,3.1,2
03.08.2019,01:09,26.0,17.5,16.7,15.0,0.0,49,78,1006.5,0.000,1.6,157,2.4,2
03.08.2019,01:19,26.0,17.4,16.6,15.0,0.0,49,77,1006.5,0.000,1.3,247,0.0,2
03.08.2019,01:29,26.0,17.1,16.4,15.0,0.0,49,79,1006.8,0.000,0.6,315,1.8,2
03.08.2019,01:39,26.0,16.9,16.2,14.8,0.0,49,80,1006.8,0.000,0.3,315,1.9,2
03.08.2019,01:49,26.0,16.7,15.9,14.4,0.0,49,80,1006.8,0.000,0.2,157,0.0,2
03.08.2019,01:59,26.0,16.4,15.6,14.0,0.0,49,80,1006.8,0.000,0.0,270,0.0,2
03.08.2019,02:09,26.0,16.3,15.5,14.0,0.0,49,80,1006.9,0.000,0.0,67,0.0,2
03.08.2019,02:19,26.0,16.3,15.5,14.0,0.0,49,80,1006.9,0.000,0.0,135,0.0,2
03.08.2019,02:29,26.0,16.2,15.5,14.0,0.0,49,81,1006.8,0.000,0.0,135,0.0,2
03.08.2019,02:39,26.0,15.9,15.2,13.8,0.0,49,81,1006.8,0.000,0.0,135,0.0,2
03.08.2019,02:49,26.0,15.7,14.9,13.3,0.0,49,81,1006.8,0.000,0.0,135,0.0,2
03.08.2019,02:59,26.0,15.5,14.7,13.1,0.0,49,82,1006.8,0.000,0.0,270,0.0,2
03.08.2019,03:09,26.0,15.3,14.6,13.2,0.0,49,82,1006.6,0.000,0.0,247,0.0,2
03.08.2019,03:19,26.0,15.1,14.4,13.1,0.0,49,83,1006.6,0.000,0.0,157,0.0,2
03.08.2019,03:29,26.0,15.2,14.5,13.1,0.0,49,83,1006.9,0.000,0.0,135,0.0,2
03.08.2019,03:39,26.0,15.1,14.5,13.2,0.0,49,83,1006.9,0.000,0.0,45,0.0,2
03.08.2019,03:49,25.9,14.9,14.2,12.7,0.0,49,83,1006.8,0.000,0.0,112,0.0,2
03.08.2019,03:59,25.9,14.7,14.0,12.7,0.0,49,83,1006.8,0.000,0.0,315,0.0,2
03.08.2019,04:09,25.9,14.6,13.9,12.5,0.0,49,83,1006.6,0.000,0.0,315,0.0,2
03.08.2019,04:19,25.9,14.5,13.8,12.3,0.0,49,83,1006.6,0.000,0.0,315,0.0,2
03.08.2019,04:29,25.8,14.4,13.7,12.2,0.0,49,83,1006.6,0.000,0.0,112,0.0,2